Skip Page Navigation
NASA JPL Caltech
NASA Logo - Jet Propulsion Laboratory + View the NASA Portal
+ Near-Earth Object (NEO) Program
Search JPL
JPL Home Earth Solar System Stars & Galaxies Technology
JPL Solar System Dynamics
BODIES ORBITS EPHEMERIDES TOOLS PHYSICAL DATA DISCOVERY FAQ SITE MAP
JPL Small-Body Database Browser
Search: [ help ]  
5011 Ptah (6743 P-L)
Classification: Apollo [NEO, PHA]          SPK-ID: 2005011
Ephemeris | Orbit Diagram | Orbital Elements | Physical Parameters | Discovery Circumstances | Close-Approach Data ]

[ hide orbit diagram ]
Orbit Diagram
Note: Make sure you have Java enabled on your browser to see the applet. This applet is provided as a 3D orbit visualization tool. The applet was implemented using 2-body methods, and hence should not be used for determining accurate long-term trajectories (over several years or decades) or planetary encounter circumstances. For accurate long-term ephemerides, please instead use our Horizons system.
Orbit Viewer

Additional Notes: the orbits shown in the applet are color coded. The planets are white lines, and the asteroid/comet is a blue line. The bright white line indicates the portion of the orbit that is above the ecliptic plane, and the darker portion is below the ecliptic plane. Likewise for the asteroid/comet orbit, the light blue indicates the portion above the ecliptic plane, and the dark blue the portion below the ecliptic plane.

Orbit Viewer applet originally written and kindly provided by Osamu Ajiki (AstroArts), and further modified by Ron Baalke (JPL).


Orbital Elements at Epoch 2456400.5 (2013-Apr-18.0) TDB
Reference: JPL 123 (heliocentric ecliptic J2000)
 Element Value Uncertainty (1-sigma)   Units 
e .5000528351398972 5.4956e-08  
a 1.635683949521449 6.8547e-09 AU
q .817755553170424 8.8339e-08 AU
i 7.407150367695212 8.9122e-06 deg
node 10.80301145586414 2.6822e-05 deg
peri 105.703684577588 2.7788e-05 deg
M 355.2312229327982 8.1248e-06 deg
tp 2456410.621666756143
(2013-Apr-28.12166676)
1.7291e-05 JED
period 764.0952766008562
2.09
4.8031e-06
1.315e-08
d
yr
n .4711454330688852 2.9616e-09 deg/d
Q 2.453612345872474 1.0282e-08 AU
  Orbit Determination Parameters
   # obs. used (total)      548  
   data-arc span      19010 days (52.05 yr)  
   first obs. used      1960-09-24  
   last obs. used      2012-10-11  
   planetary ephem.      DE405  
   SB-pert. ephem.      SB405-CPV-2  
   condition code      0  
   fit RMS      .56767  
   data source      ORB  
   producer      Otto Matic  
   solution date      2013-Apr-29 15:37:38  

Additional Information
 Earth MOID = .0249994 AU 
 T_jup = 4.144 
[ show covariance matrix ]

Ephemeris | Orbit Diagram | Orbital Elements | Physical Parameters | Discovery Circumstances | Close-Approach Data ]

Physical Parameter Table
Parameter Symbol Value Units Sigma Reference Notes
absolute magnitude H 17.1 mag n/a PDS3 (MPC 28112)  

5011 Ptah (6743 P-L)          Discovered 1960-Sep-24 by van Houten and Gehrels at Palomar (675)
Reference: DISCOVERY.DBLast Updated: 2003-08-29

[ show close-approach data ]
Alternate Designations
 6743 P-L = 1983 TF2 
Ephemeris | Orbit Diagram | Orbital Elements | Physical Parameters | Discovery Circumstances | Close-Approach Data ]
ABOUT SSD CREDITS/AWARDS PRIVACY/COPYRIGHT GLOSSARY LINKS
FirstGov 2013-May-21 21:07 UT
(server date/time)  
NASA Home Page
Site Manager:   Donald K. Yeomans
Webmaster  Alan B. Chamberlin